sat.trackr.live / text

‹ back to catalog

STARLINK-35362

NORAD 65888 · 2025-224G

PAYLOAD ACTIVE UNKNOWN

§ Identity

Operator
Country
US
Launch date
2025-10-07
Launch site
AFETR
Launch vehicle
Mass (kg)
RCS (m²)

Purposes: comms

External: N2YO · Heavens-Above · Gunter

§ Orbital elements

Epoch: 2026-09-20T04:34:40.297152Z

Period
93.85 min
Inclination
53.1589°
Eccentricity
0.0001470
Mean motion
15.34407324 rev/d
Perigee alt
461.7 km
Apogee alt
463.7 km
Semi-major
6,840.8 km
B*
6.4311e-4
RAAN
187.1841°
Arg perigee
103.6234°
Mean anomaly
256.4933°
Rev number
5,461

§ Raw data

STARLINK-353621 65888U 25224G   26263.19074418  .00021419  00000+0  64311-3 0  99972 65888  53.1589 187.1841 0001470 103.6234 256.4933 15.34407324 54610

JSON: /api/v1/satellites/65888 · /tle

For live sub-satellite position, see the globe view (requires WebGL).

§ Visibility from observer

Set your observer location to see the next 7 days of passes ≥ 10°. The values pass through the URL so the page stays shareable.

No JS? Fill the form by hand. The geolocation button needs JavaScript.